Tracking 34794 objects as of 19-Jul-2026
HD Live streaming from Space Station
objects crossing your sky now

STARLINK-32296

Track STARLINK-32296 now!
10-day predictions
STARLINK-32296 is classified as:


NORAD ID: 61524
Int'l Code: 2024-183R
Perigee: 477.3 km
Apogee: 478.4 km
Inclination: 53.2 °
Period: 94.0 minutes
Semi major axis: 6848 km
RCS: Unknown
Launch date: October 15, 2024
Source: United States (US)
Launch site: AIR FORCE EASTERN TEST RANGE (AFETR)
Your satellite tracking list
Your tracking list is empty




NASA's NSSDC Master Catalog

Two Line Element Set (TLE):
1 61524U 24183R   26199.88219331  .00000018  00000-0  12323-4 0  9992
2 61524  53.1594 251.9989 0000821  80.8374 279.2721 15.31704864 99750
Source of the keplerian elements: AFSPC